Location: Unspecified
(0.0000°N, 0.0000°E)
Time: 11:17:04
(UTC+00:00)

Altair - Pass Details

Date: 24 November 2019
Orbit: 1502 x 1682 km, 47.2° (Epoch: 14 December)

Event Time Altitude Azimuth Distance (km) Brightness Sun altitude
Rises 10:21:31 0° 319° (NW) 4,720 9.8 60.8°
Reaches altitude 10° 10:24:31 10° 319° (NW) 3,761 9.4 61.3°
Maximum altitude 10:34:09 86° 231° (SW) 1,623 9.0 62.9°
Drops below altitude 10° 10:44:11 10° 142° (SE) 3,907 10.2 64.4°
Sets 10:47:22 0° 141° (SE) 4,911 10.5 64.9°
